Temp_Advection
nan nan nan nan nan nan nan nan nan nan nan nan nan nan nan nan nan nan nan nan nan nan nan nan nan nan nan nan nan nan nan nan nan nan nan nan nan nan nan nan nan nan nan nan nan nan nan nan nan nan nan nan nan nan nan nan nan nan nan nan nan nan nan nan nan nan nan nan nan
nan 0 0 0 0 0 0 0 0 0 0 -0 -0 -0 -0 -0 -0 -0 -0 -0 -0 -0 -0 -0 -0 -0 -0 -0 -0 -0 -0 -0 -0 -0 -0 -0 -0 -0 -0 -0 -0 -0 -0 -0 -0 -0 -0 -0 -0 -0 -0 -0 -1 -1 -0 -0 -0 -1 -1 -0 -0 -0 -0 -0 0 0 0 -0 nan
nan 0 0 0 0 0 0 0 0 0 -0 -0 -0 -0 -0 -0 -0 -0 -0 -0 -0 -0 -0 -0 -0 -0 -0 -0 -0 -0 -0 -0 -0 -0 -0 -0 -0 -0 -0 -0 -0 -0 -0 -0 -0 -0 -0 -0 -0 -0 -1 -1 -1 -1 -1 -1 -0 -0 -1 -1 -0 -0 0 0 0 0 0 0 nan
nan 0 0 0 0 0 0 0 0 0 0 -0 -0 -0 -0 -0 -0 -0 -0 -0 -0 -0 -0 -0 -0 -0 -0 -0 -0 -0 -0 -0 -0 -0 -0 -0 -0 -0 -0 -0 -0 -0 -0 -0 -0 -0 -0 -0 -0 -1 -1 -1 -1 -1 -1 -1 -1 -0 -0 -0 -0 -0 -0 -0 0 0 0 -0 nan
nan 0 0 0 0 0 0 0 0 0 0 -0 -0 -0 -0 -0 -0 -0 -0 -0 -0 -0 -0 -0 -0 -0 -0 -0 -0 0 0 -0 -0 -0 -0 -0 -0 -0 -0 -0 -0 -0 -0 -0 -0 -0 -0 -0 -1 -1 -1 -1 -1 -1 -1 -1 -1 -1 -0 -0 -0 0 0 -0 -0 0 0 -0 nan
nan 0 0 0 0 0 0 0 0 0 0 -0 -0 -0 -0 -0 -0 -0 -0 -0 -0 -0 -0 -0 -0 -0 -0 -0 -0 0 0 0 -0 -0 -0 -0 -0 -0 -0 -0 -0 -0 -0 -0 -0 -0 -0 -0 -1 -1 -1 -1 -1 -1 -0 -0 -0 -1 -1 -1 -0 -0 0 -0 -0 -0 -0 -0 nan
nan 0 0 0 0 0 0 0 0 0 -0 -0 -0 -0 -0 -0 -0 -0 -0 -0 -0 -0 -0 -0 -0 -0 -0 -0 -0 -0 -0 0 -0 -0 -0 -0 -0 -0 -0 -0 -0 -0 -0 -0 -0 -0 -0 -0 -0 -1 -1 -1 -1 -1 -0 -0 -0 -0 -1 -1 -0 -0 -0 0 -0 -0 -0 -0 nan
nan 0 0 0 0 0 0 0 0 -0 -0 -0 -0 -0 -0 -0 -0 -0 -0 -0 -0 -0 -0 -0 -0 -0 -0 -0 -0 -0 -0 -0 -0 -0 -0 -0 -0 -0 -0 -0 -0 -0 -0 -0 -0 -0 -0 -0 -0 -0 -0 -1 -1 -1 -0 -0 -0 -0 -1 -1 -1 -0 -0 0 0 -0 -0 -0 nan
nan 0 0 0 0 0 0 0 0 -0 -0 -0 -0 -0 -0 -0 -0 -0 -0 -0 -0 -0 -0 -0 -0 -0 -0 -0 -0 -0 -0 -0 -0 -0 -0 -0 -0 -0 -0 -0 -0 -0 -0 -0 -0 -0 -0 -0 -0 -0 -0 -0 -0 -1 -0 -0 -0 -0 -0 -1 -1 -1 -0 -0 0 0 -0 -0 nan
nan 0 0 0 0 0 0 0 0 -0 -0 -0 -0 -0 -0 -0 -0 -0 -0 -0 -0 -0 -0 -0 -0 -0 -0 -0 -0 -0 -0 -0 -0 -0 -0 -0 -0 -0 -0 -0 -0 -0 -0 -0 -0 -0 -0 -0 -0 -0 -0 -0 -0 -0 -0 -0 -0 -0 -0 -0 -1 -1 -1 -0 -0 0 -0 -0 nan
nan 0 0 0 0 0 0 0 0 -0 -0 -0 -0 -0 -0 -0 -0 -0 -0 -0 -0 -0 -0 -0 -0 -0 -0 -0 -0 -0 -0 -0 -0 -0 -0 -0 -0 -0 -0 -0 -0 -0 -0 -0 -0 -0 -0 -0 -0 -0 -0 -0 -0 -0 -0 -0 -0 -0 -0 -0 -0 -1 -1 -1 -0 -0 -0 -0 nan
nan 0 0 0 0 0 0 0 0 -0 -0 -0 -0 -0 -0 -0 -0 -0 -0 -0 -0 -0 -0 -0 -0 -0 -0 -0 -0 -0 -0 -0 -0 -0 -0 -0 -0 -0 -0 -0 -0 -0 -0 -0 -0 -0 -0 -0 -0 -1 -1 -1 -0 -0 -0 -1 -1 -1 -1 -1 -0 -0 -1 -1 -0 -0 -0 -0 nan
nan 0 0 0 0 0 0 0 0 -0 -0 -0 -0 -0 -0 -0 -0 -0 -0 -0 -0 -0 -0 -0 -0 -0 -0 -0 -0 -0 -0 -0 -0 -0 -0 -0 -0 -0 -0 -0 -0 -0 -0 -0 -0 -0 -0 -0 -0 -1 -1 -1 -1 -1 -0 -0 -0 -1 -1 -1 -1 -0 -0 -0 -1 -0 -0 -0 nan
nan 0 0 0 0 0 0 0 0 -0 -0 -0 -0 -0 -0 -0 -0 -0 -0 -0 -0 -0 -0 -0 -0 -0 -0 -0 -0 -0 -0 -0 -0 -0 -0 -0 -0 -0 -0 -0 -0 -0 -0 -0 -0 -0 -0 -0 -0 -0 -1 -1 -1 -1 -0 -0 -0 -0 -0 -1 -1 -0 -0 -0 -0 -0 -0 -0 nan
nan 0 0 0 0 0 0 0 0 -0 -0 -0 -0 -0 -0 -0 -0 -0 -0 -0 -0 -0 -0 -0 0 0 0 -0 -0 -0 -0 -0 -0 -0 -0 -0 -0 -0 -0 -0 -0 -0 -0 -0 -0 -0 -0 -0 -0 -0 -0 -1 -1 -1 -0 -0 -0 -0 0 -0 -0 -0 -0 -0 -0 -0 -0 -0 nan
nan 0 0 0 0 0 0 0 -0 -0 -0 -0 -0 -0 -0 -0 -0 -0 -0 -0 -0 -0 -0 -0 -0 0 0 0 -0 -0 -0 -0 -0 -0 -0 -0 -0 -0 -0 -0 -0 -0 -0 -1 -1 -0 -0 -0 -0 -0 -0 -0 -1 -1 -1 -0 -0 -0 -0 0 -0 -0 -0 -0 -0 -0 -0 -0 nan
nan 0 0 0 0 0 0 0 -0 -0 -0 -0 -0 -0 -0 -0 -0 -0 -0 -0 -0 -0 -0 -0 -0 -0 0 0 -0 -0 -0 -0 -0 -0 -0 -0 -1 -1 -1 -1 -1 -1 -1 -1 -1 -1 -1 -0 -0 -0 -0 -0 -0 -0 -0 -0 -0 -0 -0 -0 -0 -0 -0 -0 -0 -0 0 0 nan
nan 0 0 0 0 0 0 0 0 -0 -0 -0 -0 -0 -0 -0 -0 -0 -0 -0 -0 -0 -0 -0 -0 -0 -0 -0 -0 -0 -0 -0 -0 -0 -0 -0 -0 -1 -1 -1 -1 -1 -0 -1 -1 -1 -1 -1 -0 -0 0 -0 -0 -0 -0 -0 -0 -0 -0 -0 -0 -0 -0 -0 -0 0 0 0 nan
nan 0 0 0 0 0 0 0 0 0 -0 -0 -0 -0 -0 -0 -0 -0 -0 -0 -0 -0 -0 -0 -0 -0 -0 -0 -0 -0 -0 -0 -0 -1 -1 -1 -0 -0 -1 -1 -0 -0 -0 -0 -0 -0 -0 -0 -0 -0 -0 -0 -0 -0 -0 -0 -0 -0 -0 -0 -0 0 0 0 0 0 0 0 nan
nan 0 0 0 0 0 0 0 0 -0 -0 -0 -0 -0 -0 -0 -0 -0 -0 -0 -0 -0 -0 -0 -0 -0 -0 -0 -0 -0 -0 -0 -0 -1 -1 -1 -0 -0 -0 -0 -1 -0 -0 -0 -0 -0 -0 -0 -0 -0 -0 -0 -0 -0 -0 0 0 0 0 0 0 0 0 0 0 0 0 0 nan
nan 0 0 0 0 0 0 0 0 -0 -0 -0 -0 -0 -0 -0 -0 -0 -0 -0 -0 -0 -0 -0 -0 -0 -0 -0 -0 -0 -0 -0 -0 -0 -0 -0 -0 -0 -0 -0 -0 -0 -0 -0 -0 0 0 -0 -0 -0 -0 -0 -0 -0 -0 -0 0 0 0 0 0 0 0 0 0 0 0 0 nan
nan 0 0 0 0 0 0 0 0 -0 -0 -0 -0 -0 -0 -0 -0 -0 -0 -0 -0 -0 -0 -0 -0 -0 -0 -0 -1 -1 -0 -0 -0 -0 -0 -0 -0 -0 -0 -0 -0 -0 -0 -0 -0 -0 -0 -0 -0 -0 -0 -0 -0 -0 -0 -0 0 0 0 0 0 0 0 0 0 0 0 0 nan
nan 0 0 0 0 0 0 0 0 -0 -0 -0 -0 -0 -0 -0 -0 -0 -0 -0 -0 -0 -0 -0 -0 -0 -0 -0 -0 -0 -1 -0 -0 -0 -0 -0 -0 -0 -0 -0 0 -0 -0 -0 -0 -0 -1 -1 -1 -0 -0 -0 -0 -0 0 0 0 0 0 0 0 0 0 0 0 0 0 0 nan
nan 0 0 0 0 0 0 0 0 -0 -0 -0 -0 -0 -0 -0 -0 -0 -0 -0 -0 -0 -0 -0 -0 -0 -0 -0 -0 -0 -0 -0 -0 -0 -0 -0 -0 -0 -0 0 0 0 0 0 0 -0 -0 -1 -1 -0 -0 -0 -0 0 0 0 0 0 0 0 0 0 0 0 0 0 0 0 nan
nan 0 0 0 0 0 0 0 -0 -0 -0 -0 -0 -0 -0 -0 -0 -0 -0 -0 -0 -0 -0 -0 -0 -0 -0 -0 -0 -0 -0 -0 -0 -0 -1 -0 -0 -0 -0 -0 0 0 0 -0 -0 0 0 0 -0 -0 -0 -0 -0 0 0 0 0 0 0 0 0 0 0 0 0 0 0 0 nan
nan 0 0 0 0 0 0 -0 -0 -0 -0 -0 -0 -0 -0 -0 -0 -0 -0 -0 -0 -0 -0 -0 -0 -0 -0 -0 -0 -0 0 0 -0 -0 -0 -1 -0 -0 -0 -0 -0 -0 -0 -0 -0 0 0 1 0 0 -0 -0 -0 -0 0 0 0 0 0 0 0 0 0 0 0 0 0 0 nan
nan 0 0 0 0 0 0 -0 -0 -0 -0 -0 -0 -0 -0 -0 -0 -0 -0 -0 -0 -0 -0 -0 -0 -0 -0 -0 -0 -0 -0 -0 -0 -0 -0 -0 -1 -0 -0 -0 -0 -0 -0 -0 -0 -0 0 0 0 0 -0 -0 -0 -0 -0 0 0 0 0 0 0 0 0 0 0 0 0 0 nan
nan 0 0 0 0 0 -0 -0 -0 -0 -0 -0 -0 -0 -0 -0 -0 -0 -0 -0 -0 -0 -0 -0 -0 -0 -0 -0 -0 -0 -0 -0 -0 -0 -0 -0 -0 -0 -0 -0 -0 -0 -0 -0 0 0 0 0 0 0 -0 -0 -0 -0 -0 0 0 0 0 0 0 0 0 0 0 0 0 0 nan
nan 0 0 0 0 0 -0 -0 -0 -0 -0 -0 -0 -0 -0 -0 -0 -0 -0 -0 -0 -0 -0 -0 -0 -0 -0 -0 -0 -0 -0 -0 -0 -0 -0 -0 -0 -0 -0 -0 -0 -0 -0 0 0 0 0 0 0 -0 -0 -0 -0 -0 -0 0 0 0 0 0 0 0 1 1 1 1 1 0 nan
nan 0 0 0 0 0 0 0 -0 -0 -0 -0 -0 -0 -0 -0 -0 -0 -0 -0 -0 -0 -0 -0 -0 -0 -0 -0 -0 -0 -0 0 -0 -0 -0 -0 -1 -1 -1 -0 -0 -0 -0 -0 0 0 0 0 0 -0 -0 -0 -0 -0 -0 0 0 0 0 0 0 0 1 1 1 1 1 1 nan
nan 0 0 -0 -0 0 0 0 0 0 0 -0 -0 -0 -0 -0 -0 -0 -0 -0 -0 -0 -0 -0 -0 -0 -0 -0 -0 -0 -0 -0 -0 -0 -0 -1 -1 -1 -1 -1 -0 -0 -0 -0 -0 0 0 0 0 -0 -0 -0 -0 -0 0 0 0 0 0 0 0 1 1 1 1 1 1 1 nan
nan 0 -0 -0 -0 -0 0 0 0 0 -0 -0 -0 -0 -0 -0 -0 -0 -0 -0 -0 -0 -0 -0 -0 -0 -0 -0 -0 -0 -0 -0 -0 -0 -0 -1 -1 -1 -1 -1 -1 -0 -0 -0 -0 0 0 0 0 0 -0 -0 -0 -0 -0 0 0 0 0 0 0 1 1 1 1 1 1 1 nan
nan 0 -0 -0 -0 0 0 0 0 -0 -0 -0 -0 -0 -0 -0 -0 -0 -0 -0 -0 -0 -0 -0 -0 -0 -0 -1 -0 -0 -0 -0 -0 -0 -0 -0 -1 -1 -1 -1 -1 -0 -0 -0 -0 -0 0 0 0 0 0 0 -0 -0 -0 -0 -0 0 0 0 0 0 0 0 1 1 1 1 nan
nan 0 -0 -0 0 0 0 0 0 -0 -0 -0 -0 -0 -0 -0 -0 -0 -0 -0 -0 -0 -0 -0 -0 -0 -0 -0 -1 -0 -0 -0 -0 -0 -0 -0 -0 -1 -1 -1 -0 -0 -0 -0 -0 -0 -0 -0 -0 0 0 0 -0 -0 -0 -0 -0 -0 0 0 0 0 0 0 0 0 1 1 nan
nan -0 0 0 0 0 0 0 -0 -0 -0 -0 -0 -0 -0 -0 -0 -0 -0 -0 -0 -0 -0 -0 -0 -0 -0 -0 -0 -0 -0 -0 -0 -0 -0 -0 -0 -1 -1 -1 -1 -0 -0 -0 -0 -0 -0 -0 -0 -0 -0 -0 -0 -0 -0 -0 -0 0 0 0 0 0 0 0 0 0 0 0 nan
nan 0 0 0 0 0 0 0 -0 -0 -0 -0 -0 -0 -0 -0 -0 -0 -0 -0 -0 -0 -0 -0 -0 -0 -0 -0 -0 -0 -0 -0 -0 -0 -0 -0 -0 -1 -1 -1 -1 -1 -0 -0 -0 -0 -0 -0 -0 -0 -0 -0 -0 -0 -0 -0 -0 0 0 0 0 0 0 0 0 0 0 0 nan
nan 0 0 0 0 0 -0 -0 -0 -0 -0 -0 -0 -0 -0 -0 -0 -0 -0 -0 -1 -1 -1 -0 -0 -0 -0 -0 -0 -0 -0 -0 -0 -0 -0 -0 -0 -1 -1 -1 -1 -1 -0 -0 -0 -0 -1 -1 -1 -1 -1 -0 -0 -0 -0 -0 -0 -0 0 0 0 0 0 0 0 0 0 0 nan
nan 0 0 0 0 0 -0 -0 -0 -0 -0 -0 -0 -0 -0 -0 -0 -0 -0 -0 -1 -1 -1 -1 -0 -0 -0 -0 -0 -0 -0 -0 -0 -0 -0 -0 -0 -0 -1 -1 -1 -1 -1 -0 -0 -0 -1 -1 -1 -1 -1 -1 -0 -0 -0 -0 -0 -0 -0 -0 0 0 0 0 0 0 0 0 nan
nan 0 0 0 0 -0 -0 -0 -0 -0 -0 -0 -0 -0 -0 -0 -0 -0 -0 -0 -0 -1 -1 -1 -1 -0 -0 -0 -1 -1 -0 -0 0 0 -0 -0 -0 -0 -0 -0 -1 -1 -1 -0 -0 -0 -1 -1 -1 -1 -1 -1 -1 -0 -0 -0 -0 -0 -0 -0 -0 0 0 -0 0 0 0 0 nan
nan 0 0 0 -0 -0 -0 -0 -0 -0 -0 -0 -0 -0 -0 -0 -0 -0 -0 -0 -0 -0 -0 -1 -0 -0 -0 -0 -1 -1 -1 -0 -0 0 0 -0 -0 -0 -0 -0 -0 -0 -1 -1 -0 -0 -1 -1 -1 -1 -1 -1 -1 -1 -1 -0 -0 -0 -0 -0 -0 -0 0 0 -0 -0 -0 -0 nan
nan nan nan nan nan nan nan nan nan nan nan nan nan nan nan nan nan nan nan nan nan nan nan nan nan nan nan nan nan nan nan nan nan nan nan nan nan nan nan nan nan nan nan nan nan nan nan nan nan nan nan nan nan nan nan nan nan nan nan nan nan nan nan nan nan nan nan nan nan
Wind_Speed
10 9 9 9 8 8 7 6 5 4 3 2 2 3 4 6 7 9 10 11 12 13 14 15 16 17 18 18 18 19 18 18 18 18 18 18 18 18 19 19 19 20 20 21 21 22 22 23 24 25 26 27 28 29 29 29 29 29 28 28 27 26 26 25 25 25 26 27 27
10 10 9 9 9 8 7 6 5 3 2 1 2 4 5 7 8 10 11 12 12 13 14 15 16 17 18 18 18 18 18 18 18 18 18 18 18 18 19 19 19 20 20 21 22 22 23 24 26 27 28 29 29 30 30 29 29 28 28 27 27 26 26 26 26 26 26 27 28
10 9 9 9 8 7 6 5 4 2 1 1 3 4 6 8 9 10 11 12 13 14 15 16 16 17 17 18 18 18 18 17 17 17 17 18 18 18 19 19 20 20 21 21 22 23 25 26 27 28 29 30 30 30 30 29 29 28 27 27 27 26 26 26 26 26 27 27 28
9 9 9 8 8 7 6 5 3 2 0 2 4 5 7 8 10 11 12 13 13 14 15 16 16 17 17 17 17 17 17 17 17 17 17 17 18 18 19 19 20 20 21 22 23 25 26 27 29 30 30 31 31 30 30 29 28 27 27 27 26 26 26 26 26 27 27 28 28
10 9 9 9 8 7 6 4 3 1 1 3 5 6 8 9 11 12 12 13 14 14 15 16 16 16 17 17 17 17 17 17 17 17 17 17 18 18 19 19 20 21 22 23 25 26 27 29 30 30 31 30 30 29 29 28 28 27 27 27 26 26 26 26 27 27 28 28 29
10 10 9 9 8 7 5 4 2 1 2 4 6 7 9 10 11 12 13 13 14 15 15 15 16 16 17 17 17 17 17 17 17 17 17 17 18 18 19 20 21 22 23 24 26 27 29 30 30 30 30 30 29 29 28 27 27 27 27 27 26 26 27 27 27 28 29 29 30
11 10 10 9 8 6 5 3 2 2 4 5 7 8 9 11 11 12 13 14 14 15 15 16 16 16 17 17 17 17 17 17 17 17 17 17 18 19 19 20 22 23 24 26 27 29 29 30 30 30 29 29 28 28 27 27 27 27 27 27 27 27 27 28 28 29 30 31 32
11 10 9 8 7 6 4 3 3 3 4 6 7 8 9 10 11 12 13 14 14 15 15 16 16 17 17 17 17 17 17 17 17 17 17 18 19 19 21 22 23 24 26 27 29 29 30 30 29 28 28 27 27 27 27 27 26 27 27 28 28 28 28 28 29 30 30 32 33
11 10 9 8 7 6 4 3 3 4 5 6 7 8 9 10 11 12 13 14 15 15 16 16 16 17 17 17 17 17 17 17 17 17 18 19 20 21 22 23 25 26 27 28 29 29 29 29 28 27 27 26 26 27 27 26 27 27 28 28 29 29 29 29 30 30 31 32 33
11 11 10 9 7 6 4 4 4 4 5 6 7 8 9 10 11 12 13 14 15 16 16 16 17 17 17 17 17 17 17 17 17 18 18 19 21 22 23 25 26 28 28 29 29 29 29 28 27 26 26 26 26 26 27 27 27 28 28 29 29 30 30 30 30 31 32 33 34
11 11 10 9 7 6 5 4 4 5 6 7 8 8 9 10 11 12 13 14 15 15 16 17 17 17 17 16 16 16 17 17 18 18 19 20 22 23 25 26 27 28 29 29 29 28 28 27 26 26 26 26 26 27 27 27 28 28 29 29 29 30 31 31 31 32 33 34 36
11 11 10 9 7 6 5 4 5 5 6 7 8 9 9 10 11 12 13 14 15 15 16 16 16 16 16 16 16 16 17 17 18 19 20 22 23 24 26 27 28 29 29 28 28 27 27 26 26 26 27 27 27 27 27 28 28 29 29 30 30 30 31 32 32 33 34 36 37
12 11 10 9 8 6 5 5 5 6 7 8 8 9 10 10 11 12 13 14 15 15 16 16 16 16 16 16 16 16 17 18 19 20 21 23 24 25 27 28 28 28 28 28 27 26 26 26 26 27 27 28 28 28 28 28 29 29 30 30 30 31 31 32 33 34 36 37 39
12 11 10 9 8 6 6 6 6 7 7 8 9 9 10 11 12 12 13 14 15 15 16 16 15 15 15 15 16 16 17 18 20 21 22 24 25 26 27 28 28 28 27 27 26 26 25 26 26 27 28 28 29 29 28 28 29 29 30 30 31 31 32 33 34 35 37 38 40
12 11 10 9 8 7 6 7 7 8 8 8 9 10 10 11 12 12 13 14 14 15 15 15 15 15 15 15 16 17 18 19 20 22 23 25 26 27 28 28 28 27 27 26 26 25 25 26 26 27 28 29 29 29 29 29 29 29 29 30 31 31 32 34 35 36 38 39 40
11 10 10 8 7 7 7 7 8 8 8 8 9 10 10 11 12 12 13 14 14 15 15 14 14 14 15 15 16 17 19 20 21 23 25 26 27 27 27 27 27 26 26 26 26 26 26 26 27 27 28 29 29 29 29 29 29 29 29 30 31 31 33 34 35 37 38 39 40
11 10 9 8 8 7 7 8 8 8 8 9 9 10 10 11 12 12 13 14 14 14 14 14 14 14 15 15 17 18 20 21 23 24 25 26 27 27 27 26 26 26 26 26 26 26 27 27 27 28 28 29 29 29 29 29 29 29 30 30 31 32 33 34 35 36 37 38 39
11 10 9 9 8 8 8 8 8 8 8 9 9 10 10 10 11 12 13 13 14 14 14 14 14 14 15 16 17 19 21 22 24 25 26 26 27 26 26 26 25 25 25 26 26 27 27 28 28 28 29 29 29 29 29 29 29 29 30 30 31 32 33 34 35 36 37 38 38
11 10 10 9 8 8 8 8 8 8 9 9 9 9 10 10 11 12 13 13 14 14 13 14 14 15 16 17 19 20 22 23 25 25 26 26 26 26 25 25 25 25 25 26 26 27 27 28 28 29 29 29 30 29 29 29 29 30 30 31 31 32 33 34 35 35 36 37 38
11 10 10 9 9 9 8 8 8 9 9 9 9 9 10 10 11 12 13 13 14 14 13 14 14 15 17 18 20 21 23 24 25 25 26 25 25 25 25 25 25 25 26 26 26 27 28 28 29 29 29 30 30 30 30 30 30 30 30 31 32 32 33 34 35 35 36 38 39
12 11 10 10 9 9 8 8 9 9 10 10 9 9 10 10 11 12 13 13 13 13 13 14 15 17 18 20 22 23 24 25 25 25 25 25 24 24 24 25 25 25 26 26 27 27 28 28 29 29 30 30 30 30 30 30 30 31 31 31 32 33 34 34 35 36 37 39 40
12 11 10 10 9 9 8 9 9 10 10 9 9 9 10 11 11 12 12 13 13 13 14 15 16 18 20 21 23 24 24 25 25 24 24 24 24 24 24 24 25 26 26 27 27 28 28 29 29 29 29 30 30 30 30 30 30 31 31 32 32 33 34 35 36 37 38 39 40
12 11 10 10 9 9 9 9 10 10 10 9 9 9 10 11 11 12 12 12 12 13 14 16 17 19 21 22 23 24 25 25 24 24 23 23 23 24 24 25 25 26 26 27 27 28 29 29 29 29 29 29 29 29 29 30 30 31 31 32 33 34 35 36 37 38 39 39 39
11 11 10 10 9 9 10 11 11 10 9 9 9 9 10 11 11 11 11 12 12 14 15 17 19 20 22 23 24 24 24 24 24 24 23 23 23 24 25 25 26 26 27 27 27 28 28 29 29 29 29 29 29 29 29 29 30 31 32 33 34 35 36 37 38 39 39 39 37
11 10 10 9 9 10 11 11 10 10 9 9 9 10 10 11 11 11 11 12 13 15 16 18 20 21 22 23 24 24 24 24 24 24 24 24 24 24 25 26 26 27 27 27 27 28 28 27 27 28 28 28 28 29 29 29 30 31 32 33 34 36 37 38 38 38 38 38 36
11 10 9 9 10 10 11 10 9 9 8 8 9 10 10 10 11 11 11 12 14 16 18 19 21 22 23 23 24 23 23 23 23 23 24 24 25 25 25 26 27 27 27 27 28 28 28 27 26 26 27 27 28 29 29 30 30 31 32 33 34 35 36 37 38 38 37 36 34
10 9 9 10 10 10 10 9 8 8 8 8 9 9 10 10 10 11 12 14 15 17 19 20 21 22 23 23 23 23 23 23 23 23 24 24 25 26 26 26 27 27 27 28 28 28 28 28 27 26 26 27 27 28 29 31 31 32 33 33 34 35 35 36 36 37 36 35 33
9 9 10 10 10 9 8 8 7 7 7 8 9 9 9 10 11 12 13 15 16 18 19 21 22 22 23 23 23 23 23 23 23 23 24 25 25 26 26 27 27 27 28 28 28 28 28 28 27 26 26 27 27 29 30 31 32 32 33 33 34 34 34 35 35 35 34 33 32
9 9 10 10 9 8 7 7 7 7 7 8 8 9 9 10 11 13 14 16 17 19 20 21 22 22 23 23 23 23 23 23 23 24 24 25 25 26 26 27 27 28 28 28 28 29 28 28 27 27 27 27 28 29 30 31 32 32 33 33 33 34 34 34 33 33 32 31 30
9 9 9 9 8 7 7 7 7 7 7 8 8 9 10 11 12 14 15 17 18 19 20 21 22 22 23 23 23 23 23 23 24 24 25 25 26 26 27 27 28 28 28 29 29 29 29 28 28 28 28 28 28 29 30 31 31 32 33 33 33 33 32 32 31 31 31 30 30
9 9 8 8 7 7 7 6 7 7 7 8 8 9 10 12 13 14 16 17 18 19 20 21 22 22 23 23 23 23 24 24 24 24 25 26 26 27 27 28 28 28 29 29 29 29 29 28 28 28 29 29 29 29 30 31 32 32 33 33 33 32 31 30 29 29 30 29 29
9 8 7 7 6 6 6 6 6 7 7 8 9 10 11 12 13 15 16 17 18 20 21 21 22 23 23 23 23 24 24 24 24 25 25 26 26 27 28 28 28 29 29 29 29 29 29 29 29 29 29 29 29 30 30 31 32 32 32 32 31 31 30 29 29 29 29 28 28
8 7 6 6 6 6 6 6 6 7 8 8 9 10 11 12 14 15 16 17 19 20 21 21 22 23 23 24 24 24 24 24 25 25 25 26 26 27 28 28 29 29 29 30 30 30 29 29 29 30 30 29 30 30 31 31 31 32 32 31 30 30 29 29 29 29 28 28 28
7 6 6 5 5 6 6 6 6 7 8 9 10 11 12 13 14 15 16 18 19 20 21 22 22 23 23 24 24 25 25 25 25 25 25 26 27 27 28 29 29 29 30 30 30 30 30 30 30 30 29 29 30 30 31 31 31 31 31 30 30 29 28 28 28 28 29 28 28
6 6 5 5 5 5 6 6 7 7 8 9 10 11 12 13 14 16 17 18 19 20 21 22 22 23 23 24 24 24 25 25 25 25 26 26 27 28 29 29 30 30 30 30 30 30 30 29 29 29 29 29 30 30 30 31 31 31 30 30 29 28 28 28 28 29 29 29 28
6 5 5 5 5 5 6 6 7 8 8 9 10 11 12 13 14 16 17 18 20 21 21 22 23 23 24 24 24 24 25 25 26 26 26 26 27 28 29 30 30 30 30 30 30 30 30 29 29 29 29 29 30 30 30 30 30 30 29 29 28 27 28 29 30 30 29 29 28
5 5 5 5 5 5 6 6 7 8 9 10 10 11 12 14 15 16 18 19 20 21 22 23 24 24 24 25 25 25 25 25 25 26 27 27 27 29 30 31 31 31 31 30 30 30 30 29 29 29 29 29 30 30 30 29 29 29 28 28 28 28 29 30 31 30 29 29 29
4 4 4 5 5 5 6 7 7 8 9 10 11 12 13 14 15 17 18 20 21 22 23 24 24 25 25 25 25 25 25 25 25 26 27 27 28 29 30 31 31 31 31 31 31 31 30 30 29 29 29 29 29 29 29 29 29 28 28 28 29 29 30 30 30 30 29 29 30
4 4 4 4 5 5 6 7 8 9 9 10 11 12 13 15 16 17 19 20 22 23 24 24 25 25 25 25 26 26 25 25 25 25 26 27 28 29 30 31 31 31 31 31 31 31 31 30 29 28 28 28 28 28 28 28 28 28 28 29 30 31 31 30 29 29 29 31 32
4 4 4 4 5 6 6 7 8 9 10 11 12 13 14 15 17 18 20 21 22 23 24 25 25 26 26 26 26 26 26 26 25 25 26 27 28 29 29 30 31 31 31 31 32 32 32 30 29 28 28 27 27 27 27 28 28 28 29 29 30 31 31 30 28 28 30 33 35
4 4 4 4 5 6 7 7 8 9 10 11 12 14 15 16 18 19 20 22 22 23 24 25 26 26 26 26 26 26 27 27 26 26 27 27 28 29 29 30 31 32 32 32 32 33 32 30 28 27 27 27 27 27 27 27 28 28 29 29 30 30 30 31 31 31 33 35 37
Wind_Direction
186 183 180 179 180 180 178 174 168 161 147 112 61 35 22 13 6 2 359 356 354 351 347 346 344 343 342 340 338 336 334 332 330 329 329 328 328 327 327 327 327 328 328 329 329 330 330 330 330 330 330 330 330 330 331 331 330 329 329 328 327 326 325 322 320 317 315 313 311
188 186 186 186 188 189 187 183 178 169 150 78 32 17 11 6 2 359 357 354 350 348 345 343 342 341 339 337 335 333 331 330 329 328 328 327 327 327 327 327 327 328 328 329 329 330 330 329 329 330 330 330 330 331 331 331 330 329 328 327 327 325 323 321 319 317 315 313 312
191 192 193 194 195 194 191 189 185 178 143 30 13 7 3 0 358 356 354 351 348 345 343 341 340 338 336 333 332 330 329 328 328 327 327 327 327 327 327 327 328 328 329 329 329 329 330 329 330 330 330 331 331 331 331 331 330 329 328 327 326 324 323 320 319 317 315 314 314
196 197 197 198 198 197 195 196 195 193 303 3 1 358 356 355 353 352 350 347 346 344 341 339 337 335 333 331 329 328 327 327 327 327 327 327 327 327 327 327 328 328 329 329 330 330 330 330 330 331 331 331 331 331 331 330 329 328 327 325 324 323 322 320 319 317 316 315 315
197 199 200 201 202 203 205 208 209 221 318 345 350 350 350 349 349 348 347 346 344 341 339 337 334 332 330 329 328 327 326 326 326 326 327 327 327 327 327 328 328 329 329 329 330 330 331 331 331 331 332 331 331 331 330 330 328 327 325 324 323 322 321 320 319 318 317 316 316
200 202 204 205 208 211 215 220 229 273 323 336 342 345 346 345 346 345 345 344 341 340 337 335 333 331 329 328 327 326 326 326 326 326 327 327 327 328 328 329 329 330 330 330 331 331 331 331 332 332 331 331 330 330 329 329 327 326 325 323 323 322 321 320 319 318 318 317 316
205 207 208 209 212 216 220 232 256 300 323 333 339 342 343 343 343 343 342 340 339 338 336 334 332 330 328 327 326 326 326 326 326 326 327 328 328 328 329 329 330 331 331 331 332 332 332 332 332 331 331 330 330 329 329 328 327 325 324 323 322 322 321 320 320 319 318 317 315
209 210 211 213 216 220 226 243 275 306 323 331 336 339 341 341 341 340 339 338 337 336 335 333 331 329 328 327 326 325 325 325 326 327 328 329 329 330 330 331 331 332 332 332 332 332 331 331 331 331 331 330 330 329 328 328 327 325 323 323 322 322 322 321 320 319 317 315 314
211 213 215 218 221 225 235 255 280 304 319 326 331 335 338 340 340 339 338 337 335 335 334 333 331 329 328 326 326 325 325 326 327 328 329 330 331 331 332 332 332 332 332 332 332 332 331 331 331 331 331 331 330 329 329 328 327 325 324 323 322 322 322 321 320 318 316 314 312
213 216 218 220 223 231 244 264 285 302 314 322 327 332 336 338 338 337 336 335 334 334 333 332 331 329 327 326 325 325 326 327 328 329 331 332 332 333 333 333 333 333 332 332 332 331 331 331 331 331 331 331 330 330 329 329 327 325 324 323 323 322 322 321 319 317 314 312 310
217 219 221 222 227 236 251 268 289 303 314 321 325 330 334 336 336 336 335 334 334 333 332 331 330 328 326 325 325 326 327 329 330 331 332 333 333 334 334 334 333 332 332 332 331 331 331 332 332 332 332 332 332 331 330 329 327 325 324 323 323 322 321 320 317 315 312 310 309
220 222 224 227 233 242 255 273 292 306 314 320 324 329 333 335 335 335 334 334 333 332 331 330 328 326 325 325 326 327 329 330 331 331 332 333 334 334 333 333 333 332 332 332 332 332 333 334 334 333 333 333 332 332 330 329 327 325 324 323 323 321 319 317 315 312 310 308 308
223 226 228 232 238 247 261 278 294 306 313 318 322 327 331 334 334 334 334 333 332 331 331 329 327 326 325 326 327 329 330 331 331 332 333 333 334 334 333 333 332 332 332 332 333 333 335 335 336 335 334 333 332 332 330 329 327 325 324 323 322 320 317 315 312 310 308 307 307
226 229 232 236 243 254 268 284 296 305 311 316 320 326 330 332 333 334 334 333 332 331 330 328 327 326 326 327 328 329 330 331 331 332 333 334 334 333 333 332 332 332 333 333 334 335 336 337 337 336 334 332 331 330 329 328 326 324 323 322 320 318 315 313 310 309 308 307 308
228 231 235 240 248 261 275 288 297 304 310 315 320 325 330 332 333 334 334 333 333 332 330 328 326 326 326 328 329 329 330 331 332 333 334 334 334 333 333 333 333 333 334 335 336 337 338 338 337 336 334 332 330 329 328 327 326 324 322 320 318 315 313 311 309 308 308 308 309
230 234 238 244 254 267 280 290 298 304 309 315 321 326 330 332 333 334 334 334 333 331 330 327 326 326 327 328 329 330 331 332 334 334 334 334 334 334 334 334 335 335 336 337 338 338 338 338 337 335 333 331 329 328 327 326 325 323 321 319 316 314 311 310 309 308 308 309 310
232 236 242 249 260 272 283 292 299 305 310 317 322 327 330 332 333 334 334 333 332 331 329 327 326 326 327 328 329 331 333 334 335 336 335 335 335 335 335 336 337 337 338 339 339 339 338 337 335 333 332 330 328 327 326 325 324 322 320 317 314 312 310 309 309 309 310 310 311
234 239 246 254 264 275 285 293 299 306 313 319 324 327 330 333 334 334 333 332 331 330 328 326 327 327 328 330 331 333 335 336 336 337 337 336 336 336 337 338 338 339 340 340 340 339 338 336 334 332 331 329 328 327 326 324 322 320 317 315 313 311 310 310 310 310 310 311 312
235 242 249 257 267 277 285 293 301 309 316 321 324 328 330 333 334 333 333 331 331 330 328 327 328 329 330 332 334 336 337 338 338 338 337 337 337 338 338 339 339 340 340 340 339 338 336 335 333 331 330 329 328 326 325 323 320 318 315 314 312 311 311 310 310 310 310 311 311
238 245 253 261 270 279 287 294 303 312 319 322 326 329 332 333 334 334 333 331 331 330 329 329 329 331 333 335 337 338 339 339 339 338 338 338 339 339 340 340 340 340 340 340 339 337 335 334 332 331 330 328 327 325 323 321 318 316 314 313 312 311 310 310 310 310 310 311 312
241 248 256 264 272 280 288 297 307 316 320 324 327 330 333 334 334 333 332 331 330 330 330 331 332 334 336 338 339 340 340 339 339 339 339 339 340 340 340 341 340 340 340 339 338 336 335 333 332 331 329 327 325 323 321 319 317 315 314 313 312 311 310 310 310 310 311 312 314
245 253 260 267 275 282 291 302 311 317 322 325 329 332 333 333 333 332 331 330 330 330 331 333 335 337 339 341 341 341 340 340 339 339 339 340 340 341 341 341 341 340 340 339 338 336 335 333 332 330 328 325 323 320 318 317 315 314 313 312 311 310 309 309 310 311 312 314 316
249 256 263 269 277 287 297 307 314 318 323 327 331 332 333 332 331 330 329 330 330 331 333 336 339 341 342 342 342 341 340 339 339 339 339 340 340 341 341 341 341 341 340 339 338 337 335 333 331 329 325 322 320 317 316 315 314 313 312 311 310 309 309 309 310 312 314 316 319
252 258 265 272 282 293 303 311 316 320 325 329 332 332 330 329 328 328 328 329 331 334 337 340 342 343 343 342 341 341 340 339 339 339 339 340 341 341 341 341 341 341 340 339 338 337 335 332 328 325 322 319 317 315 315 314 313 312 311 310 310 309 309 310 311 313 316 319 322
254 260 268 276 288 300 307 313 318 323 328 331 331 330 328 326 326 327 328 331 334 338 341 343 343 344 343 342 341 340 339 339 339 340 340 341 341 341 342 341 341 340 340 339 338 336 334 330 326 322 319 317 316 315 314 313 312 311 310 309 309 310 311 312 313 315 318 321 324
256 263 272 283 295 303 310 316 321 326 331 331 329 326 324 324 325 327 331 334 338 341 344 344 344 343 342 341 340 339 339 340 340 341 341 341 341 342 342 341 341 340 340 339 337 336 333 330 326 322 319 316 315 314 313 312 311 310 309 309 310 310 312 313 315 317 319 322 325
259 268 278 288 298 306 312 318 325 329 331 328 324 322 321 323 327 330 334 338 342 344 345 345 344 342 341 340 339 339 339 340 341 341 341 341 341 341 341 341 340 340 340 339 337 335 333 330 326 322 319 317 315 314 312 311 310 310 309 310 310 311 312 314 315 317 319 322 325
264 273 283 293 301 308 315 323 329 329 326 322 320 320 322 326 331 335 339 342 344 345 345 344 343 341 340 340 339 339 340 340 341 342 342 341 341 341 340 340 340 340 340 338 337 335 333 330 326 322 319 317 315 313 312 311 310 310 310 311 311 312 312 313 315 317 319 322 323
269 278 287 295 302 310 319 326 327 324 320 318 318 322 326 331 335 339 342 344 345 345 344 343 342 341 340 340 340 340 340 341 341 342 341 341 340 340 340 340 340 340 340 339 337 335 332 329 325 321 319 317 315 313 312 311 311 311 311 311 311 311 312 313 314 316 318 320 321
273 281 289 297 305 314 321 323 321 317 315 316 321 327 332 335 339 342 344 345 346 345 344 343 342 341 341 340 340 340 341 341 341 342 341 340 340 340 340 340 340 340 340 339 337 335 332 328 323 321 319 317 316 314 312 311 311 310 310 311 311 311 311 312 313 315 317 319 319
276 283 291 300 308 315 317 317 314 313 315 320 326 331 335 338 341 344 345 345 345 344 343 342 341 341 341 341 341 341 341 341 341 342 341 341 340 340 340 341 341 340 340 339 337 334 331 326 323 321 319 318 316 314 312 311 311 310 310 310 311 311 311 312 313 315 316 318 318
278 285 293 301 307 311 311 310 310 313 319 325 330 334 336 339 343 344 345 345 344 343 343 342 342 342 342 342 341 341 341 341 341 341 341 341 340 340 340 340 341 341 340 339 337 334 330 326 324 322 320 319 317 314 313 311 311 310 310 311 311 311 311 312 313 314 316 317 317
282 288 294 299 303 304 305 306 310 317 324 329 332 335 337 341 343 345 345 344 344 343 343 343 343 343 343 343 342 342 341 341 341 341 342 342 341 340 340 340 341 341 340 339 337 334 331 328 326 323 322 319 317 315 313 312 311 311 311 311 311 311 311 311 312 313 315 316 316
285 289 293 296 297 298 300 306 314 322 327 330 332 335 339 342 344 344 344 343 343 343 343 344 344 344 344 343 343 342 341 341 341 342 342 342 341 340 340 340 340 341 340 339 337 334 332 329 327 325 323 321 318 316 315 314 313 313 312 312 311 311 310 311 312 314 315 316 316
287 289 291 292 293 295 302 310 319 324 327 329 333 337 340 343 344 344 343 343 343 343 344 344 344 344 344 343 342 342 341 341 341 342 342 342 341 340 339 339 340 341 341 339 337 335 333 331 328 327 325 322 320 318 317 316 315 314 313 312 311 311 311 312 313 315 316 316 316
285 286 287 288 291 297 307 316 322 325 327 331 336 339 341 343 343 343 342 342 343 343 344 344 344 344 344 343 342 342 342 342 341 342 342 342 341 340 339 339 340 341 341 340 338 336 334 332 331 329 327 324 322 320 319 318 316 315 314 312 312 312 313 314 315 316 316 316 316
282 281 282 285 292 302 313 319 323 326 330 335 338 340 341 342 342 342 342 343 344 344 344 344 344 344 344 342 342 342 342 343 342 342 342 342 341 340 338 338 340 341 341 340 338 337 336 334 333 331 328 326 323 322 320 319 317 315 314 313 313 313 314 315 316 316 316 316 316
277 276 279 286 297 308 317 321 325 330 335 339 341 341 340 340 341 342 343 344 344 344 344 344 344 344 343 342 341 341 342 343 343 342 341 341 341 340 339 338 339 340 340 340 339 338 337 336 334 332 329 326 324 323 322 320 318 317 316 315 315 315 316 317 317 317 316 317 317
274 275 281 292 304 314 320 325 331 336 339 341 342 341 340 340 342 343 344 345 345 345 344 344 343 343 343 342 341 341 342 343 343 343 342 341 341 340 339 337 338 339 340 340 339 339 338 337 334 332 330 328 326 324 323 321 319 318 318 317 317 317 318 318 318 318 317 317 318
274 279 289 301 312 320 327 333 338 341 342 342 342 341 341 342 343 344 345 345 345 344 343 342 342 342 342 342 341 341 341 341 342 343 342 341 340 340 339 338 338 338 339 340 339 339 338 336 334 333 331 330 328 326 324 322 321 320 320 319 319 319 319 320 319 318 318 318 319
278 287 300 312 321 329 335 340 343 343 343 342 342 342 342 343 344 344 345 345 344 343 342 342 341 342 342 342 341 340 340 340 341 342 342 341 340 340 339 339 338 339 339 339 339 339 338 336 335 334 332 331 329 327 325 324 323 322 322 321 321 321 321 320 319 318 318 318 320
Height
1492 1493 1493 1493 1494 1494 1494 1494 1494 1494 1494 1494 1494 1494 1493 1493 1493 1492 1492 1491 1491 1490 1490 1489 1489 1488 1487 1487 1486 1485 1485 1484 1483 1482 1481 1480 1480 1479 1478 1477 1476 1476 1475 1474 1474 1473 1472 1471 1470 1469 1468 1467 1466 1465 1464 1463 1462 1460 1459 1458 1457 1456 1455 1454 1453 1452 1451 1450 1449
1492 1492 1493 1493 1493 1493 1494 1494 1494 1493 1493 1493 1493 1493 1492 1492 1492 1491 1491 1491 1490 1490 1489 1489 1488 1487 1487 1486 1485 1485 1484 1483 1482 1481 1480 1480 1479 1478 1477 1476 1476 1475 1474 1473 1473 1472 1471 1470 1469 1468 1467 1466 1465 1464 1462 1461 1460 1459 1457 1456 1455 1454 1453 1452 1451 1450 1449 1448 1447
1492 1492 1492 1493 1493 1493 1493 1493 1493 1493 1492 1492 1492 1492 1492 1491 1491 1491 1490 1490 1490 1489 1489 1488 1487 1487 1486 1485 1485 1484 1483 1482 1481 1480 1480 1479 1478 1477 1476 1476 1475 1474 1473 1472 1471 1470 1470 1469 1468 1466 1465 1464 1463 1462 1460 1459 1458 1457 1456 1455 1453 1452 1451 1450 1449 1448 1447 1446 1445
1491 1492 1492 1492 1492 1492 1492 1492 1492 1492 1492 1491 1491 1491 1491 1490 1490 1490 1490 1489 1489 1488 1488 1487 1487 1486 1485 1485 1484 1483 1482 1481 1480 1480 1479 1478 1477 1476 1475 1475 1474 1473 1472 1471 1470 1470 1468 1467 1466 1465 1464 1462 1461 1460 1459 1457 1456 1455 1454 1453 1452 1451 1450 1448 1447 1446 1445 1444 1443
1491 1491 1491 1491 1491 1491 1491 1491 1491 1491 1491 1490 1490 1490 1490 1490 1489 1489 1489 1488 1488 1488 1487 1487 1486 1485 1485 1484 1483 1482 1481 1480 1480 1479 1478 1477 1476 1475 1475 1474 1473 1472 1471 1470 1469 1468 1467 1466 1465 1463 1462 1460 1459 1458 1457 1456 1455 1453 1452 1451 1450 1449 1448 1447 1446 1445 1444 1442 1441
1490 1490 1490 1490 1490 1490 1490 1490 1490 1490 1490 1490 1490 1489 1489 1489 1488 1488 1488 1488 1487 1487 1486 1486 1485 1485 1484 1483 1482 1481 1481 1480 1479 1478 1477 1476 1475 1475 1474 1473 1472 1471 1470 1469 1468 1467 1465 1464 1463 1461 1460 1459 1458 1456 1455 1454 1453 1452 1450 1450 1449 1448 1446 1445 1444 1443 1441 1440 1439
1489 1489 1489 1490 1490 1490 1490 1490 1490 1489 1489 1489 1489 1488 1488 1488 1487 1487 1487 1487 1486 1486 1485 1485 1485 1484 1483 1482 1481 1480 1480 1479 1478 1477 1476 1475 1475 1474 1473 1472 1471 1470 1469 1468 1466 1465 1464 1463 1461 1460 1459 1457 1456 1455 1454 1453 1451 1450 1449 1447 1446 1446 1445 1443 1442 1441 1440 1438 1437
1488 1488 1488 1489 1489 1489 1489 1489 1489 1488 1488 1488 1488 1488 1487 1487 1487 1486 1486 1486 1485 1485 1485 1484 1483 1483 1482 1481 1480 1480 1479 1478 1477 1476 1475 1474 1473 1472 1472 1471 1470 1469 1468 1466 1465 1464 1462 1461 1460 1458 1457 1456 1455 1453 1452 1451 1450 1449 1447 1446 1445 1444 1443 1441 1440 1439 1438 1436 1435
1487 1487 1487 1488 1488 1488 1488 1488 1488 1488 1487 1487 1487 1487 1487 1486 1486 1485 1485 1485 1484 1484 1484 1483 1482 1482 1481 1480 1479 1478 1477 1477 1476 1475 1474 1473 1472 1471 1470 1469 1468 1467 1466 1465 1464 1462 1461 1460 1458 1457 1456 1455 1453 1452 1450 1450 1448 1447 1445 1444 1443 1441 1440 1440 1439 1437 1436 1435 1434
1486 1486 1486 1487 1487 1487 1487 1487 1487 1487 1487 1486 1486 1486 1486 1485 1485 1485 1484 1484 1483 1483 1482 1482 1481 1480 1480 1479 1478 1477 1476 1475 1475 1474 1473 1472 1471 1470 1469 1468 1467 1465 1465 1463 1462 1460 1459 1458 1456 1455 1454 1453 1452 1450 1449 1448 1446 1445 1444 1442 1441 1439 1438 1437 1436 1435 1434 1433 1432
1485 1485 1486 1486 1486 1486 1486 1486 1486 1486 1486 1485 1485 1485 1485 1485 1484 1484 1483 1483 1482 1482 1481 1481 1480 1479 1479 1478 1477 1476 1475 1475 1474 1473 1472 1471 1470 1469 1468 1467 1465 1464 1463 1462 1460 1459 1457 1456 1455 1453 1452 1451 1450 1449 1447 1446 1445 1443 1441 1440 1439 1438 1436 1435 1435 1434 1432 1431 1430
1485 1485 1485 1485 1485 1485 1485 1485 1485 1485 1485 1485 1485 1484 1484 1484 1484 1483 1483 1482 1481 1481 1480 1480 1479 1478 1477 1477 1476 1475 1474 1474 1473 1472 1471 1470 1469 1468 1466 1465 1464 1463 1461 1460 1459 1457 1456 1454 1453 1451 1450 1449 1448 1447 1445 1444 1442 1441 1440 1438 1437 1436 1435 1433 1432 1431 1430 1429 1428
1484 1484 1484 1484 1484 1484 1484 1484 1484 1484 1484 1484 1484 1483 1483 1483 1482 1482 1482 1481 1480 1480 1479 1479 1478 1477 1476 1475 1475 1474 1473 1472 1472 1471 1470 1469 1467 1466 1465 1464 1463 1461 1460 1459 1457 1455 1454 1453 1451 1450 1448 1447 1446 1445 1444 1442 1441 1439 1438 1436 1435 1434 1433 1432 1431 1430 1428 1427 1426
1483 1483 1483 1483 1483 1483 1483 1483 1483 1483 1483 1483 1483 1482 1482 1482 1481 1481 1481 1480 1480 1479 1478 1478 1477 1476 1475 1475 1474 1473 1472 1471 1470 1470 1469 1467 1466 1465 1464 1462 1461 1460 1458 1457 1455 1454 1453 1451 1450 1448 1447 1445 1444 1443 1442 1440 1439 1438 1436 1435 1433 1432 1431 1430 1429 1428 1426 1425 1424
1482 1482 1482 1482 1482 1482 1483 1483 1483 1482 1482 1482 1482 1481 1481 1481 1480 1480 1480 1479 1479 1478 1477 1477 1476 1475 1475 1474 1473 1472 1471 1470 1470 1468 1467 1466 1465 1464 1462 1461 1459 1458 1456 1455 1454 1452 1451 1450 1448 1447 1445 1444 1442 1441 1440 1439 1437 1436 1435 1433 1432 1431 1430 1428 1427 1426 1425 1423 1421
1481 1481 1481 1481 1481 1482 1482 1482 1482 1481 1481 1481 1481 1480 1480 1480 1479 1479 1479 1478 1477 1477 1476 1475 1475 1474 1474 1473 1472 1471 1470 1469 1468 1467 1466 1465 1463 1462 1460 1459 1458 1456 1455 1453 1452 1450 1449 1448 1447 1445 1444 1442 1441 1439 1438 1437 1435 1434 1433 1432 1430 1429 1428 1427 1425 1424 1422 1421 1419
1480 1480 1480 1480 1481 1481 1481 1481 1481 1480 1480 1480 1480 1480 1479 1479 1478 1478 1478 1477 1476 1476 1475 1475 1474 1473 1473 1472 1471 1470 1469 1468 1467 1465 1464 1463 1461 1460 1459 1457 1456 1455 1453 1452 1450 1449 1448 1446 1445 1444 1442 1441 1439 1438 1436 1435 1434 1432 1431 1430 1429 1428 1426 1425 1424 1422 1420 1419 1417
1479 1479 1480 1480 1480 1480 1480 1480 1480 1480 1480 1479 1479 1479 1478 1478 1477 1477 1476 1476 1475 1475 1475 1474 1473 1472 1472 1471 1470 1469 1468 1466 1465 1464 1463 1461 1460 1459 1457 1456 1455 1453 1452 1450 1449 1447 1446 1445 1443 1442 1440 1439 1438 1436 1435 1433 1432 1431 1430 1429 1427 1426 1425 1423 1422 1420 1419 1417 1415
1478 1479 1479 1479 1479 1479 1479 1479 1479 1479 1479 1478 1478 1478 1477 1477 1476 1476 1475 1475 1475 1474 1473 1473 1472 1471 1470 1470 1469 1468 1466 1465 1464 1463 1461 1460 1459 1457 1456 1455 1453 1452 1450 1449 1447 1446 1445 1443 1442 1440 1439 1437 1436 1434 1433 1432 1430 1429 1428 1427 1425 1424 1423 1421 1420 1419 1417 1415 1414
1477 1478 1478 1478 1478 1478 1478 1478 1478 1478 1478 1477 1477 1477 1476 1476 1475 1475 1475 1474 1473 1473 1472 1472 1471 1470 1469 1468 1467 1466 1465 1464 1463 1461 1460 1459 1457 1456 1455 1453 1452 1450 1449 1448 1446 1445 1443 1441 1440 1439 1437 1435 1434 1432 1431 1430 1429 1428 1426 1425 1424 1423 1421 1420 1418 1417 1415 1414 1412
1477 1477 1477 1477 1477 1477 1477 1477 1477 1477 1477 1476 1476 1475 1475 1475 1475 1474 1474 1473 1473 1472 1471 1470 1470 1469 1468 1467 1466 1465 1464 1462 1461 1460 1459 1457 1456 1455 1453 1452 1450 1449 1448 1446 1445 1443 1442 1440 1438 1437 1435 1434 1432 1431 1430 1428 1427 1426 1425 1423 1422 1421 1420 1418 1416 1415 1414 1412 1410
1476 1476 1476 1476 1477 1477 1476 1476 1476 1476 1475 1475 1475 1475 1474 1474 1474 1473 1473 1472 1472 1471 1470 1470 1469 1468 1467 1465 1464 1463 1462 1461 1460 1459 1458 1456 1455 1454 1452 1451 1449 1448 1446 1445 1443 1441 1440 1438 1437 1435 1434 1432 1431 1430 1428 1427 1426 1424 1423 1422 1420 1419 1418 1416 1415 1413 1412 1410 1409
1475 1475 1475 1476 1476 1476 1475 1475 1475 1475 1475 1474 1474 1474 1473 1473 1473 1472 1472 1471 1470 1470 1469 1469 1467 1466 1465 1464 1463 1462 1461 1460 1459 1458 1456 1455 1454 1452 1451 1450 1448 1446 1445 1443 1442 1440 1438 1436 1435 1434 1432 1431 1430 1428 1427 1426 1424 1423 1421 1420 1418 1417 1415 1414 1413 1411 1410 1408 1407
1474 1475 1475 1475 1475 1475 1475 1475 1474 1474 1474 1473 1473 1473 1473 1472 1472 1471 1471 1470 1470 1469 1468 1467 1466 1465 1464 1463 1462 1461 1460 1458 1457 1456 1455 1454 1453 1451 1450 1448 1446 1445 1443 1442 1440 1439 1437 1435 1434 1432 1431 1430 1428 1427 1426 1425 1423 1421 1420 1418 1416 1415 1413 1412 1411 1410 1408 1406 1405
1474 1474 1474 1474 1474 1474 1474 1474 1473 1473 1473 1472 1472 1472 1472 1471 1471 1470 1470 1469 1469 1468 1467 1466 1465 1464 1463 1462 1461 1460 1459 1457 1456 1455 1453 1452 1451 1450 1448 1447 1445 1444 1442 1440 1439 1438 1436 1435 1433 1432 1430 1428 1427 1425 1424 1423 1421 1420 1418 1416 1415 1413 1411 1410 1408 1407 1406 1405 1403
1473 1473 1473 1473 1473 1473 1473 1473 1472 1472 1472 1471 1471 1471 1471 1470 1470 1469 1469 1468 1467 1466 1465 1465 1464 1463 1462 1461 1460 1459 1457 1456 1455 1453 1452 1450 1449 1448 1447 1445 1444 1442 1440 1439 1438 1436 1435 1434 1432 1431 1429 1427 1425 1424 1422 1421 1420 1418 1417 1415 1413 1411 1410 1408 1406 1405 1404 1403 1401
1472 1472 1472 1472 1472 1472 1472 1472 1471 1471 1470 1470 1470 1470 1470 1469 1469 1468 1468 1467 1466 1465 1464 1463 1462 1461 1460 1460 1458 1457 1456 1455 1454 1452 1451 1449 1448 1446 1445 1444 1442 1441 1439 1438 1436 1435 1433 1432 1431 1430 1428 1426 1425 1423 1421 1419 1418 1416 1415 1413 1411 1410 1408 1406 1405 1403 1402 1400 1399
1471 1471 1471 1471 1471 1471 1471 1470 1470 1470 1470 1470 1469 1469 1469 1468 1468 1467 1466 1465 1465 1464 1463 1462 1461 1460 1459 1458 1457 1456 1455 1454 1452 1451 1449 1448 1446 1445 1444 1442 1441 1439 1438 1436 1435 1433 1432 1430 1429 1428 1427 1425 1423 1421 1420 1418 1416 1414 1413 1411 1410 1408 1407 1405 1404 1402 1400 1399 1398
1470 1470 1470 1470 1470 1470 1470 1470 1469 1469 1469 1469 1468 1468 1468 1467 1466 1466 1465 1464 1464 1463 1462 1461 1460 1459 1458 1457 1456 1455 1453 1452 1451 1449 1448 1446 1445 1444 1442 1441 1439 1438 1436 1435 1433 1432 1430 1429 1427 1426 1425 1424 1422 1420 1418 1416 1414 1413 1411 1410 1408 1407 1405 1404 1402 1401 1399 1398 1396
1469 1470 1470 1469 1469 1469 1469 1469 1468 1468 1468 1468 1467 1467 1467 1466 1465 1465 1464 1463 1462 1461 1461 1460 1459 1458 1457 1456 1455 1453 1452 1451 1450 1448 1447 1445 1444 1442 1441 1440 1438 1436 1435 1433 1432 1430 1429 1427 1426 1425 1423 1422 1420 1418 1416 1415 1413 1411 1410 1408 1407 1405 1404 1402 1401 1400 1398 1396 1395
1468 1468 1468 1468 1468 1468 1468 1468 1468 1467 1467 1467 1466 1466 1465 1465 1464 1464 1463 1462 1461 1460 1460 1459 1458 1457 1456 1455 1453 1452 1451 1449 1448 1447 1445 1444 1442 1441 1439 1438 1436 1435 1433 1432 1430 1429 1427 1426 1424 1423 1421 1420 1418 1416 1415 1413 1411 1410 1408 1406 1405 1404 1402 1401 1400 1398 1397 1395 1394
1467 1467 1467 1467 1467 1467 1467 1467 1467 1466 1466 1466 1465 1465 1465 1464 1463 1462 1462 1461 1460 1460 1459 1458 1457 1455 1454 1453 1452 1450 1449 1448 1446 1445 1444 1442 1441 1439 1438 1436 1435 1433 1432 1430 1429 1427 1425 1424 1422 1421 1419 1418 1416 1415 1413 1411 1410 1408 1406 1405 1404 1402 1401 1400 1398 1397 1395 1394 1393
1466 1466 1466 1466 1466 1466 1466 1466 1466 1465 1465 1465 1465 1464 1463 1463 1462 1461 1461 1460 1459 1458 1457 1456 1455 1454 1453 1451 1450 1449 1448 1446 1445 1444 1442 1441 1440 1438 1436 1435 1434 1432 1430 1429 1427 1425 1424 1422 1420 1419 1417 1416 1414 1412 1410 1409 1408 1406 1405 1403 1402 1401 1400 1398 1397 1395 1394 1393 1391
1465 1465 1465 1465 1465 1465 1465 1465 1465 1465 1464 1464 1464 1463 1462 1462 1461 1460 1460 1459 1458 1457 1456 1455 1454 1453 1451 1450 1449 1448 1446 1445 1444 1442 1441 1440 1438 1436 1435 1433 1432 1430 1429 1427 1425 1424 1422 1420 1419 1417 1415 1414 1412 1410 1409 1407 1405 1404 1403 1402 1400 1399 1398 1397 1395 1394 1393 1391 1390
1465 1465 1465 1465 1465 1465 1465 1464 1464 1464 1464 1463 1463 1462 1461 1461 1460 1459 1459 1458 1457 1456 1455 1454 1453 1452 1450 1449 1448 1446 1445 1444 1442 1441 1440 1438 1436 1435 1433 1432 1430 1429 1428 1426 1424 1422 1420 1419 1417 1415 1414 1412 1410 1408 1407 1405 1404 1402 1401 1400 1399 1397 1396 1395 1394 1393 1391 1390 1389
1464 1464 1464 1464 1464 1464 1464 1464 1463 1463 1463 1462 1461 1461 1460 1460 1459 1458 1457 1457 1456 1455 1454 1453 1451 1450 1449 1448 1446 1445 1444 1442 1441 1439 1438 1437 1435 1433 1432 1430 1429 1427 1426 1424 1422 1421 1419 1417 1415 1414 1412 1410 1408 1407 1405 1404 1402 1401 1400 1398 1397 1396 1395 1393 1392 1391 1390 1389 1387
1463 1463 1463 1463 1463 1463 1463 1463 1462 1462 1461 1461 1460 1460 1459 1459 1458 1457 1456 1455 1454 1453 1452 1451 1450 1449 1448 1446 1445 1444 1443 1441 1440 1438 1436 1435 1434 1432 1430 1428 1427 1425 1424 1423 1421 1419 1417 1415 1414 1412 1410 1409 1407 1405 1404 1402 1401 1399 1398 1396 1395 1394 1393 1392 1390 1389 1388 1387 1385
1462 1462 1463 1463 1462 1462 1462 1462 1461 1461 1460 1460 1460 1459 1458 1458 1457 1456 1455 1454 1453 1452 1450 1450 1449 1447 1446 1445 1444 1442 1441 1440 1438 1437 1435 1434 1432 1431 1429 1427 1425 1424 1422 1421 1419 1417 1415 1414 1412 1411 1410 1408 1406 1404 1402 1401 1399 1398 1396 1395 1393 1392 1391 1390 1389 1387 1386 1385 1384
1462 1462 1462 1462 1462 1461 1461 1461 1460 1460 1460 1459 1459 1458 1457 1457 1456 1455 1454 1453 1452 1450 1449 1448 1447 1446 1445 1443 1442 1440 1439 1438 1437 1436 1434 1432 1431 1430 1428 1425 1424 1422 1421 1419 1417 1416 1414 1412 1411 1410 1408 1407 1405 1403 1401 1400 1398 1396 1395 1393 1392 1390 1389 1389 1387 1386 1384 1383 1382
1461 1461 1461 1461 1461 1461 1460 1460 1460 1459 1459 1458 1457 1457 1456 1455 1455 1454 1453 1452 1451 1450 1448 1447 1446 1445 1443 1442 1440 1439 1438 1436 1435 1434 1433 1431 1430 1428 1426 1425 1422 1420 1419 1418 1416 1414 1413 1411 1410 1409 1407 1405 1404 1402 1400 1399 1396 1395 1393 1392 1390 1389 1388 1386 1386 1385 1383 1381 1380
1460 1460 1460 1460 1460 1460 1460 1459 1459 1458 1458 1457 1457 1456 1455 1455 1454 1453 1452 1450 1450 1448 1447 1446 1445 1443 1442 1440 1439 1437 1436 1435 1434 1433 1431 1430 1428 1427 1425 1423 1421 1419 1417 1416 1414 1413 1411 1410 1409 1407 1406 1405 1403 1401 1399 1397 1395 1393 1392 1390 1389 1388 1386 1385 1384 1383 1381 1380 1378